Ketchikan, AK

4:21 PM AKST on December 12, 2018 (GMT -0900)
Ketchikan International

Weather History for PAKT - October, 2018

Change the Weather History Date:

Tuesday, October 16, 2018

  Actual Average Record
Temperature  
Mean Temperature 51 °F -  
Max Temperature 61 °F 50 °F 63 °F (2015)
Min Temperature 42 °F 38 °F 24 °F (1992)
Degree Days  
Heating Degree Days 14    
Growing Degree Days 1 (Base 50)    
Moisture  
Dew Point 41 °F    
Average Humidity 68    
Maximum Humidity 89    
Minimum Humidity 45    
Precipitation  
Precipitation 0.00 in - - ()
Sea Level Pressure  
Sea Level Pressure 30.17 in    
Wind  
Wind Speed 10 mph (SE)    
Max Wind Speed 17 mph    
Max Gust Speed -    
Visibility 10 miles    
Events      
Averages and records for this station are not official NWS values.
T = Trace of Precipitation, MM = Missing Value Source: NWS Daily Summary

Daily Weather History Graph

Daily Weather History Graph

Search for Another Location

Airport or City:

Astronomy

Oct. 16, 2018 Rise Set
Actual Time 7:19 AM AKDT 5:44 PM AKDT
Civil Twilight 6:42 AM AKDT 6:21 PM AKDT
Nautical Twilight 5:59 AM AKDT 7:03 PM AKDT
Astronomical Twilight 5:17 AM AKDT 7:45 PM AKDT
Moon 3:07 PM AKDT (10/16) 11:03 PM AKDT (10/16)
Length of Visible Light 11h 39m
Length of Day
10h 24m
Waxing Crescent, 51% of the Moon is Illuminated
Oct 16
Waxing Crescent
Oct 24
Full
Oct 31
Last Quarter
Nov 7
New
Nov 15
First Quarter

Hourly Weather History & Observations

Time (AKDT) Temp. Windchill Dew Point Humidity Pressure Visibility Wind Dir Wind Speed Gust Speed Precip Events Conditions
12:53 AM 46.0 °F 41.9 °F 39.9 °F 79% 30.27 in 10.0 mi SE 8.1 mph - N/A   Clear
1:53 AM 46.0 °F 41.9 °F 39.0 °F 76% 30.26 in 10.0 mi SE 8.1 mph - N/A   Clear
2:53 AM 44.1 °F 41.5 °F 37.9 °F 79% 30.26 in 10.0 mi South 4.6 mph - N/A   Clear
3:53 AM 42.1 °F 38.4 °F 37.9 °F 85% 30.24 in 10.0 mi SE 5.8 mph - N/A   Clear
4:53 AM 43.0 °F 38.8 °F 39.0 °F 86% 30.24 in 10.0 mi SE 6.9 mph - N/A   Clear
5:53 AM 43.0 °F 37.2 °F 39.9 °F 89% 30.23 in 10.0 mi SE 10.4 mph - N/A   Clear
6:06 AM 44.1 °F 38.6 °F 39.0 °F 82% 30.22 in 10.0 mi SE 10.4 mph - N/A   Clear
6:53 AM 44.6 °F 38.8 °F 39.2 °F 81% 30.22 in 10.0 mi SE 11.5 mph - N/A   Clear
7:53 AM 42.8 °F 37.0 °F 39.2 °F 87% 30.21 in 10.0 mi SE 10.4 mph - N/A   Clear
8:53 AM 44.6 °F 39.2 °F 39.2 °F 81% 30.20 in 10.0 mi SE 10.4 mph - N/A   Clear
9:53 AM 51.8 °F - 39.2 °F 62% 30.20 in 10.0 mi SSE 10.4 mph - N/A   Clear
10:53 AM 55.4 °F - 41.0 °F 58% 30.20 in 10.0 mi SE 10.4 mph - N/A   Clear
11:53 AM 60.8 °F - 39.2 °F 45% 30.19 in 10.0 mi SE 17.3 mph - N/A   Clear
12:53 PM 60.8 °F - 39.2 °F 45% 30.18 in 10.0 mi ESE 13.8 mph - N/A   Clear
1:53 PM 60.8 °F - 39.2 °F 45% 30.16 in 10.0 mi ESE 15.0 mph - N/A   Clear
2:53 PM 59.0 °F - 39.2 °F 48% 30.15 in 10.0 mi ESE 16.1 mph - N/A   Clear
3:53 PM 57.2 °F - 41.0 °F 55% 30.13 in 10.0 mi SE 9.2 mph - N/A   Clear
4:53 PM 57.0 °F - 42.1 °F 57% 30.10 in 10.0 mi ESE 13.8 mph - N/A   Clear
5:53 PM 55.0 °F - 42.1 °F 62% 30.09 in 10.0 mi SE 8.1 mph - N/A   Clear
6:53 PM 55.0 °F - 42.1 °F 62% 30.07 in 10.0 mi SSE 8.1 mph - N/A   Clear
7:53 PM 54.0 °F - 42.1 °F 64% 30.08 in 10.0 mi SSE 10.4 mph - N/A   Clear
8:53 PM 54.0 °F - 43.0 °F 66% 30.09 in 10.0 mi SE 15.0 mph - N/A   Clear
9:53 PM 54.0 °F - 44.1 °F 69% 30.07 in 10.0 mi SE 16.1 mph - N/A   Clear
10:53 PM 55.0 °F - 44.1 °F 67% 30.09 in 10.0 mi SE 15.0 mph - N/A   Clear
11:53 PM 54.0 °F - 45.0 °F 72% 30.05 in 10.0 mi SE 11.5 mph - N/A   Partly Cloudy